Deville, LA

5:22 PM CST on February 08, 2016 (GMT -0600)
Alexandria Esler Regional

Weather History for KESF - July, 2013

Change the Weather History Date:

Wednesday, July 24, 2013

  Actual Average Record
Temperature  
Mean Temperature 83 °F -  
Max Temperature 93 °F 91 °F 100 °F (2015)
Min Temperature 75 °F 70 °F 64 °F (1970)
Cooling Degree Days 18    
Growing Degree Days 33 (Base 50)    
Moisture  
Dew Point 73 °F    
Average Humidity 77    
Maximum Humidity 94    
Minimum Humidity 48    
Precipitation  
Precipitation 0.07 in - - ()
Sea Level Pressure  
Sea Level Pressure 29.94 in    
Wind  
Wind Speed 8 mph (WSW)    
Max Wind Speed 16 mph    
Max Gust Speed 22 mph    
Visibility 9 miles    
Events Rain , Thunderstorm    
Averages and records for this station are not official NWS values.
T = Trace of Precipitation, MM = Missing Value Source: NWS Daily Summary

Daily Weather History Graph

Daily Weather History Graph

Search for Another Location

Airport or City:

Trip Planner

Search our weather history database for the weather conditions in past years. The results will help you decide how hot, cold, wet, or windy it might be!

Date:

Astronomy

Jul. 24, 2013 Rise Set
Actual Time 6:20 AM CDT 8:10 PM CDT
Civil Twilight 5:53 AM CDT 8:37 PM CDT
Nautical Twilight 5:21 AM CDT 9:09 PM CDT
Astronomical Twilight 4:47 AM CDT 9:43 PM CDT
Moon 9:31 PM CDT (7/24) 8:29 AM CDT (7/24)
Length of Visible Light 14h 43m
Length of Day
13h 49m
Waning Gibbous, 94% of the Moon is Illuminated
Jul 24
Waning Gibbous
Jul 29
Last Quarter
Aug 6
New
Aug 14
First Quarter
Aug 20
Full

Hourly Weather History & Observations

Time (CDT) Temp. Heat Index Dew Point Humidity Pressure Visibility Wind Dir Wind Speed Gust Speed Precip Events Conditions
12:53 AM 81.0 °F 86.7 °F 75.0 °F 82% 29.91 in 10.0 mi SW 5.8 mph - N/A   Clear
1:53 AM 81.0 °F 86.7 °F 75.0 °F 82% 29.91 in 10.0 mi West 6.9 mph - N/A   Partly Cloudy
2:53 AM 81.0 °F 86.2 °F 73.9 °F 79% 29.91 in 10.0 mi West 8.1 mph - N/A   Clear
3:53 AM 81.0 °F 86.2 °F 73.9 °F 79% 29.91 in 10.0 mi WSW 9.2 mph - N/A   Partly Cloudy
4:53 AM 80.1 °F 84.5 °F 73.9 °F 81% 29.94 in 10.0 mi WSW 4.6 mph - N/A   Clear
5:53 AM 78.1 °F - 73.9 °F 87% 29.95 in 10.0 mi WSW 5.8 mph - N/A   Clear
6:53 AM 77.0 °F - 73.9 °F 90% 29.97 in 9.0 mi West 3.5 mph - N/A   Clear
7:09 AM 78.8 °F - 73.4 °F 83% 29.97 in 9.0 mi West 6.9 mph - N/A   Mostly Cloudy
7:53 AM 80.1 °F 84.5 °F 73.9 °F 81% 29.96 in 10.0 mi West 9.2 mph - N/A   Mostly Cloudy
8:51 AM 82.4 °F 88.2 °F 73.4 °F 74% 29.96 in 10.0 mi West 15.0 mph - N/A   Mostly Cloudy
8:53 AM 82.9 °F 89.4 °F 73.9 °F 74% 29.96 in 10.0 mi West 15.0 mph - N/A   Mostly Cloudy
9:53 AM 84.0 °F 90.2 °F 73.0 °F 69% 29.98 in 10.0 mi West 12.7 mph 18.4 mph N/A   Mostly Cloudy
10:39 AM 87.8 °F 93.8 °F 71.6 °F 58% 29.98 in 10.0 mi WSW 13.8 mph - N/A   Partly Cloudy
10:53 AM 87.1 °F 92.8 °F 71.1 °F 59% 29.98 in 10.0 mi West 15.0 mph 20.7 mph N/A   Scattered Clouds
11:53 AM 87.1 °F 92.0 °F 70.0 °F 57% 29.95 in 10.0 mi SW 12.7 mph - N/A   Clear
12:53 PM 90.0 °F 95.4 °F 70.0 °F 52% 29.94 in 10.0 mi WSW 13.8 mph 19.6 mph N/A   Clear
1:53 PM 91.0 °F 95.6 °F 69.1 °F 48% 29.94 in 10.0 mi WSW 16.1 mph - N/A   Clear
2:53 PM 91.9 °F 98.4 °F 71.1 °F 50% 29.91 in 10.0 mi SW 10.4 mph - N/A   Clear
3:53 PM 91.9 °F 98.4 °F 71.1 °F 50% 29.88 in 10.0 mi WSW 8.1 mph - N/A   Clear
4:53 PM 91.9 °F 97.4 °F 70.0 °F 48% 29.89 in 10.0 mi WSW 9.2 mph - N/A   Mostly Cloudy
5:53 PM 79.0 °F - 73.9 °F 84% 29.91 in 9.0 mi North 5.8 mph 21.9 mph 0.00 in Rain Light Rain
6:15 PM 78.8 °F - 73.4 °F 83% 29.91 in 8.0 mi Variable 3.5 mph - 0.04 in Rain , Thunderstorm Light Thunderstorms and Rain
6:53 PM 78.1 °F - 75.0 °F 90% 29.92 in 10.0 mi West 6.9 mph - 0.07 in Thunderstorm Mostly Cloudy
7:00 PM 78.8 °F - 75.2 °F 89% 29.92 in 10.0 mi West 3.5 mph - N/A   Mostly Cloudy
7:53 PM 78.1 °F - 75.0 °F 90% 29.93 in 10.0 mi SW 4.6 mph - N/A   Clear
8:53 PM 77.0 °F - 75.0 °F 94% 29.93 in 7.0 mi North 3.5 mph - N/A   Clear
9:53 PM 77.0 °F - 73.9 °F 90% 29.94 in 10.0 mi Calm Calm - N/A   Clear
10:53 PM 75.9 °F - 73.9 °F 94% 29.94 in 7.0 mi Calm Calm - N/A   Clear
11:46 PM 75.2 °F - 73.4 °F 94% 29.95 in 6.0 mi Calm Calm - N/A   Partly Cloudy
11:53 PM 75.0 °F - 73.0 °F 94% 29.94 in 3.0 mi Calm Calm - N/A   Partly Cloudy
11:58 PM 75.2 °F - 73.4 °F 94% 29.95 in 1.5 mi Calm Calm - N/A   Scattered Clouds